User: anonymous   Login
Location: Unspecified
(0.0000°N, 0.0000°E)
Time: 11:35:24
(UTC+00:00)
Language:

Tansei-3 - Orbit

View from above orbital plane
View from above orbital plane
View from above satellite
View from above satellite

Ground track
Ground track

The orbit data is extracted from the following two-line orbital elements,

1  9841U 77012A   17264.41343633 -.00000055 +00000-0 -59489-4 0  9997
2  9841 065.7584 241.2517 1720442 084.7064 294.6874 10.73809247591095
Epoch (UTC): 21 September 2017 09:55:20
Eccentricity: 0.1720442
inclination: 65.7584°
perigee height: 807 km
apogee height: 3793 km
right ascension of ascending node: 241.2517°
argument of perigee: 84.7064°
revolutions per day: 10.73809247
mean anomaly at epoch: 294.6874°
orbit number at epoch: 59109

The dashed part of the orbit path shows where the satellite is in the earth's shadow,  

DLR